When you browse on this site, cookies collect data to enhance your experience and personalize the content and advertising you see.
Visit our Privacy Policy to learn more. By continuing to use the site, you agree to this use of cookies and data.
  • In Netherlands
  • List of Countries
  • For 7 days
  • Water Temperature
  • Satellite Maps
  • Weather Map
  • Weather Widgets
  • user-avatar
    Login

    Hourly Weather Malaga

    Today, 18 January, Friday

    Time Temperature Precipitation Wind Pressure Humidity
    00:00 +9°C° 0 mm 3 mps 762 mmHg 81%
    01:00 +9°C° 0 mm 3 mps 762 mmHg 81%
    02:00 +8°C° 0 mm 3 mps 762 mmHg 81%
    03:00 +8°C° 0 mm 3 mps 762 mmHg 81%
    04:00 +8°C° 0 mm 2 mps 762 mmHg 81%
    05:00 +8°C° 0 mm 2 mps 762 mmHg 80%
    06:00 +7°C° 0 mm 2 mps 762 mmHg 81%
    07:00 +8°C° 0 mm 2 mps 762 mmHg 77%
    08:00 +9°C° 0 mm 2 mps 762 mmHg 73%
    09:00 +11°C° 0 mm 1 mps 763 mmHg 70%
    10:00 +12°C° 0 mm 1 mps 763 mmHg 64%
    11:00 +14°C° 0 mm 1 mps 763 mmHg 58%
    12:00 +15°C° 0 mm 1 mps 763 mmHg 53%
    13:00 +15°C° 0 mm 1 mps 762 mmHg 52%
    14:00 +16°C° 0 mm 2 mps 762 mmHg 52%
    15:00 +16°C° 0 mm 2 mps 762 mmHg 51%
    16:00 +15°C° 0 mm 2 mps 762 mmHg 56%
    17:00 +14°C° 0 mm 2 mps 762 mmHg 61%
    18:00 +11°C° 0 mm 3 mps 762 mmHg 66%
    19:00 +11°C° 0 mm 3 mps 762 mmHg 66%
    20:00 +10°C° 0 mm 3 mps 763 mmHg 66%
    21:00 +10°C° 0 mm 3 mps 763 mmHg 66%
    22:00 +10°C° 0 mm 3 mps 763 mmHg 65%
    23:00 +10°C° 0 mm 3 mps 763 mmHg 64%

    Tomorrow, 19 January, Saturday

    Time Temperature Precipitation Wind Pressure Humidity
    00:00 +9°C° 0 mm 3 mps 763 mmHg 63%
    01:00 +9°C° 0 mm 3 mps 763 mmHg 64%
    02:00 +9°C° 0 mm 3 mps 763 mmHg 65%
    03:00 +9°C° 0 mm 3 mps 763 mmHg 67%
    04:00 +8°C° 0 mm 3 mps 763 mmHg 67%
    05:00 +8°C° 0 mm 3 mps 763 mmHg 67%
    06:00 +8°C° 0 mm 3 mps 763 mmHg 68%
    07:00 +9°C° 0 mm 3 mps 763 mmHg 66%
    08:00 +10°C° 0 mm 3 mps 763 mmHg 63%
    09:00 +10°C° 0 mm 3 mps 763 mmHg 61%
    10:00 +12°C° 0 mm 3 mps 763 mmHg 60%
    11:00 +13°C° 0 mm 3 mps 762 mmHg 60%
    12:00 +14°C° 0 mm 3 mps 762 mmHg 60%
    13:00 +16°C° 0.1 mm 3 mps 762 mmHg 62%
    14:00 +16°C° 0.1 mm 2 mps 761 mmHg 65%
    15:00 +16°C° 0.1 mm 2 mps 761 mmHg 67%
    16:00 +15°C° 0 mm 2 mps 761 mmHg 72%
    17:00 +15°C° 0 mm 2 mps 761 mmHg 77%
    18:00 +14°C° 0 mm 2 mps 761 mmHg 81%
    19:00 +14°C° 0.2 mm 2 mps 760 mmHg 84%
    20:00 +13°C° 0.2 mm 3 mps 760 mmHg 87%
    21:00 +13°C° 0.2 mm 3 mps 760 mmHg 89%
    22:00 +13°C° 0.6 mm 3 mps 760 mmHg 90%
    23:00 +13°C° 0.6 mm 3 mps 759 mmHg 91%

    Day after tomorrow, 20 January, Sunday

    Time Temperature Precipitation Wind Pressure Humidity
    00:00 +13°C° 0.6 mm 3 mps 759 mmHg 92%
    01:00 +13°C° 0.4 mm 3 mps 759 mmHg 91%
    02:00 +13°C° 0.4 mm 3 mps 759 mmHg 91%
    03:00 +12°C° 0.4 mm 3 mps 758 mmHg 91%
    04:00 +12°C° 0 mm 3 mps 758 mmHg 90%
    05:00 +12°C° 0 mm 3 mps 758 mmHg 90%
    06:00 +12°C° 0 mm 3 mps 758 mmHg 89%
    07:00 +12°C° 0 mm 3 mps 758 mmHg 87%
    08:00 +13°C° 0 mm 3 mps 758 mmHg 84%
    09:00 +13°C° 0 mm 3 mps 758 mmHg 82%
    10:00 +14°C° 0.1 mm 3 mps 758 mmHg 78%
    11:00 +14°C° 0.1 mm 4 mps 758 mmHg 74%
    12:00 +15°C° 0.1 mm 5 mps 759 mmHg 70%
    13:00 +15°C° 0 mm 5 mps 758 mmHg 68%
    14:00 +15°C° 0 mm 5 mps 758 mmHg 67%
    15:00 +15°C° 0 mm 5 mps 758 mmHg 66%
    16:00 +14°C° 0 mm 5 mps 758 mmHg 70%
    17:00 +13°C° 0 mm 4 mps 759 mmHg 74%
    18:00 +12°C° 0 mm 4 mps 759 mmHg 78%
    19:00 +12°C° 0 mm 4 mps 760 mmHg 80%
    20:00 +11°C° 0 mm 4 mps 761 mmHg 81%
    21:00 +11°C° 0 mm 4 mps 761 mmHg 83%
    22:00 +11°C° 0 mm 4 mps 762 mmHg 81%
    23:00 +10°C° 0 mm 4 mps 762 mmHg 80%

    21 January, Monday

    Time Temperature Precipitation Wind Pressure Humidity
    00:00 +10°C° 0 mm 4 mps 763 mmHg 78%
    01:00 +10°C° 0 mm 4 mps 763 mmHg 77%
    02:00 +8°C° 0 mm 4 mps 763 mmHg 77%
    03:00 +8°C° 0 mm 4 mps 763 mmHg 76%
    04:00 +8°C° 0 mm 4 mps 763 mmHg 75%
    05:00 +7°C° 0 mm 4 mps 763 mmHg 75%
    06:00 +7°C° 0 mm 4 mps 763 mmHg 74%
    07:00 +8°C° 0 mm 4 mps 764 mmHg 70%
    08:00 +8°C° 0 mm 4 mps 764 mmHg 66%
    09:00 +10°C° 0 mm 3 mps 765 mmHg 63%
    10:00 +12°C° 0 mm 3 mps 765 mmHg 56%
    11:00 +13°C° 0 mm 3 mps 765 mmHg 49%
    12:00 +16°C° 0 mm 2 mps 765 mmHg 42%
    13:00 +16°C° 0 mm 2 mps 764 mmHg 41%
    14:00 +16°C° 0 mm 2 mps 764 mmHg 40%
    15:00 +17°C° 0 mm 3 mps 764 mmHg 39%
    16:00 +14°C° 0 mm 3 mps 764 mmHg 44%
    17:00 +13°C° 0 mm 3 mps 764 mmHg 49%
    18:00 +11°C° 0 mm 3 mps 765 mmHg 54%
    19:00 +11°C° 0 mm 3 mps 765 mmHg 57%
    20:00 +10°C° 0 mm 4 mps 766 mmHg 60%
    21:00 +8°C° 0 mm 4 mps 766 mmHg 62%
    22:00 +8°C° 0 mm 4 mps 766 mmHg 63%
    23:00 +8°C° 0 mm 4 mps 766 mmHg 63%

    22 January, Tuesday

    Time Temperature Precipitation Wind Pressure Humidity
    00:00 +7°C° 0 mm 4 mps 767 mmHg 64%
    01:00 +7°C° 0 mm 4 mps 766 mmHg 65%
    02:00 +7°C° 0 mm 4 mps 766 mmHg 67%
    03:00 +6°C° 0 mm 4 mps 766 mmHg 68%
    04:00 +6°C° 0 mm 4 mps 766 mmHg 68%
    05:00 +6°C° 0 mm 4 mps 766 mmHg 68%
    06:00 +5°C° 0 mm 4 mps 767 mmHg 69%
    07:00 +6°C° 0 mm 4 mps 767 mmHg 65%
    08:00 +7°C° 0 mm 4 mps 767 mmHg 62%
    09:00 +8°C° 0 mm 3 mps 768 mmHg 59%
    10:00 +10°C° 0 mm 3 mps 767 mmHg 50%
    11:00 +12°C° 0 mm 3 mps 767 mmHg 41%
    12:00 +15°C° 0 mm 2 mps 767 mmHg 33%
    13:00 +14°C° 0 mm 3 mps 766 mmHg 32%
    14:00 +14°C° 0 mm 3 mps 765 mmHg 31%
    15:00 +16°C° 0 mm 3 mps 765 mmHg 30%
    16:00 +13°C° 0 mm 3 mps 765 mmHg 35%
    17:00 +11°C° 0 mm 4 mps 765 mmHg 39%
    18:00 +10°C° 0 mm 4 mps 765 mmHg 44%
    19:00 +8°C° 0 mm 4 mps 765 mmHg 46%
    20:00 +8°C° 0 mm 4 mps 765 mmHg 47%
    21:00 +7°C° 0 mm 4 mps 765 mmHg 49%
    22:00 +7°C° 0 mm 4 mps 765 mmHg 51%
    23:00 +7°C° 0 mm 4 mps 765 mmHg 53%

    23 January, Wednesday

    Time Temperature Precipitation Wind Pressure Humidity
    00:00 +7°C° 0 mm 4 mps 765 mmHg 55%
    01:00 +7°C° 0 mm 4 mps 764 mmHg 56%
    02:00 +7°C° 0 mm 4 mps 764 mmHg 57%
    03:00 +7°C° 0 mm 4 mps 764 mmHg 58%
    04:00 +7°C° 0 mm 4 mps 763 mmHg 60%
    05:00 +8°C° 0 mm 4 mps 763 mmHg 61%
    06:00 +8°C° 0 mm 4 mps 763 mmHg 63%
    07:00 +8°C° 0 mm 4 mps 763 mmHg 65%
    08:00 +10°C° 0 mm 4 mps 763 mmHg 68%
    09:00 +10°C° 0 mm 5 mps 763 mmHg 71%
    10:00 +12°C° 0 mm 5 mps 763 mmHg 67%
    11:00 +13°C° 0 mm 5 mps 763 mmHg 62%
    12:00 +14°C° 0 mm 5 mps 763 mmHg 58%
    13:00 +14°C° 0 mm 5 mps 762 mmHg 59%
    14:00 +14°C° 0 mm 6 mps 761 mmHg 60%
    15:00 +13°C° 0 mm 6 mps 761 mmHg 62%
    16:00 +13°C° 0 mm 5 mps 761 mmHg 64%
    17:00 +12°C° 0 mm 5 mps 761 mmHg 65%
    18:00 +12°C° 0 mm 5 mps 761 mmHg 67%
    19:00 +12°C° 0 mm 5 mps 761 mmHg 67%
    20:00 +10°C° 0 mm 5 mps 761 mmHg 66%
    21:00 +10°C° 0 mm 5 mps 761 mmHg 65%
    22:00 +10°C° 0 mm 5 mps 761 mmHg 69%
    23:00 +10°C° 0 mm 5 mps 760 mmHg 72%
    Show more